[[{"header":{"parameterUnit":"m.s-1","parameterCategory":2,"la1":30.2991,"la2":30.254,"lo1":-89.0895,"lo2":-89.0444,"dx":0.0017,"dy":0.0017,"nx":28,"ny":28,"refTime":"2022-11-07T09:00:00:Z","depth":"0","parameterNumber":2,"parameterNumberName":"U-component_of_CURRENTS"},"data":[0,0,0,0,0,0,0,0,0,0,0,0,0,0,0,0,0,0,0,0,0,0,0,0,0,0,0,0,0,0,0,0,0,0,0,0,0,0,0,0,0,0,0,0,0,0,0,0,0,0,0,0,0,0,0,0,0,0,-0.153,-0.153,0,-0.1542,-0.1542,-0.1542,-0.1536,-0.1536,-0.1536,-0.1535,-0.1474,-0.1472,-0.1471,0,0,0,0,0,0,0,0,0,0,0,0,0,-0.1484,-0.1485,-0.153,-0.153,-0.153,-0.1542,-0.1542,-0.1542,-0.1536,-0.1536,-0.1535,-0.1535,-0.1474,-0.1473,-0.1471,0,0,0,0,0,0,0,0,0,0,0,0,0,-0.1498,-0.1485,-0.153,-0.1531,-0.1531,-0.1542,-0.1542,-0.1542,-0.1536,-0.1536,-0.1535,-0.1535,-0.1475,-0.1473,-0.147,-0.1459,0,0,-0.1463,-0.1462,0,0,0,0,0,0,0,0,-0.1498,-0.15,-0.153,-0.1531,-0.1531,-0.1539,-0.1503,-0.1511,-0.1536,-0.1531,-0.1535,-0.1535,-0.1491,-0.1487,-0.1487,-0.1456,-0.1453,-0.1463,-0.1462,-0.1461,-0.146,0,0,0,0,0,0,0,-0.1497,-0.1499,-0.1532,-0.1531,-0.1531,-0.1525,-0.1527,-0.1505,-0.1508,-0.1532,-0.1532,-0.1537,-0.149,-0.149,-0.1486,-0.1453,-0.1463,-0.1461,-0.146,-0.1459,-0.145,-0.1452,0,0,0,0,0,0,-0.1501,-0.1498,-0.1532,-0.1533,-0.1516,-0.1526,-0.1528,-0.1535,-0.151,-0.1508,-0.1537,-0.1537,-0.1494,-0.1488,-0.1483,-0.1503,-0.1461,-0.1459,-0.1457,-0.1449,-0.1451,-0.1452,0,0,0,0,0,0,-0.15,-0.1504,-0.1531,-0.1517,-0.1521,-0.1527,-0.1535,-0.1535,-0.1539,-0.1516,-0.1511,-0.1542,-0.1493,-0.1486,-0.1478,-0.1499,-0.1458,-0.1455,-0.1448,-0.145,-0.1451,-0.152,0,0,0,0,0,0,-0.1499,-0.1504,-0.1512,-0.1518,-0.1522,-0.1553,-0.1535,-0.1536,-0.1544,-0.1543,-0.1518,-0.1512,-0.1493,-0.1482,-0.1476,-0.1495,-0.1454,-0.1446,-0.1449,-0.1451,-0.1516,-0.1524,-0.153,0,0,0,0,0,-0.1497,-0.1516,-0.1512,-0.1516,-0.1532,-0.1554,-0.1556,-0.1557,-0.1544,-0.1557,-0.1538,-0.1513,-0.1492,-0.1481,-0.1473,-0.1493,-0.1445,-0.1448,-0.1451,-0.1513,-0.1522,-0.153,0,0,0,0,0,0,-0.1504,-0.1518,-0.1513,-0.1536,-0.1548,-0.1554,-0.1566,-0.1561,-0.1557,-0.1554,-0.1521,-0.1515,-0.1514,-0.1495,-0.1484,-0.1499,-0.1467,-0.1468,-0.1517,-0.1525,-0.1532,-0.1549,-0.1452,0,0,0,0,0,-0.1508,-0.1522,-0.1535,-0.1551,-0.156,-0.156,-0.1568,-0.1572,-0.1569,-0.1568,-0.1549,-0.1531,-0.152,-0.1516,-0.15,-0.1505,-0.1508,-0.1515,-0.1522,-0.1529,-0.1538,-0.1556,-0.1566,-0.1461,-0.1461,-0.1461,0,0,-0.1515,-0.1524,-0.1532,-0.1553,-0.1559,-0.1589,-0.1564,-0.1586,-0.1607,-0.156,-0.1574,-0.1549,-0.1524,-0.1533,-0.1533,-0.1521,-0.1566,-0.1532,-0.1537,-0.1544,-0.156,-0.157,-0.1579,-0.1462,-0.1462,-0.1462,0,0,-0.1549,-0.1543,-0.1575,-0.1589,-0.161,-0.1611,-0.162,-0.1631,-0.1631,-0.1642,-0.1614,-0.1608,-0.1588,-0.1584,-0.1576,-0.1613,-0.1597,-0.1605,-0.1659,-0.1676,-0.1685,-0.1693,-0.1737,-0.1748,-0.1615,-0.1615,-0.1616,0,-0.1561,-0.1598,-0.1587,-0.1625,-0.1642,-0.1625,-0.1667,-0.1668,-0.1674,-0.168,-0.1658,-0.1645,-0.1618,-0.1636,-0.1648,-0.163,-0.1643,-0.1627,-0.1686,-0.1694,-0.17,-0.1743,-0.1755,-0.1619,-0.1619,-0.1618,-0.1618,0,-0.1622,-0.1653,-0.1672,-0.1709,-0.1723,-0.1755,-0.1759,-0.177,-0.1759,-0.1759,-0.1767,-0.1735,-0.1732,-0.1721,-0.1692,-0.1728,-0.1724,-0.1688,-0.1666,-0.1715,-0.1757,-0.1768,-0.1624,-0.1623,-0.1622,-0.1621,0,0,-0.1652,-0.1707,-0.1714,-0.1743,-0.1771,-0.1789,-0.1822,-0.185,-0.1874,-0.1863,-0.1894,-0.1867,-0.1843,-0.1833,-0.1799,-0.1808,-0.1867,-0.1772,-0.1771,-0.1819,-0.193,-0.1973,-0.1989,-0.1836,-0.1838,-0.1839,-0.195,0,-0.1708,-0.1787,-0.1797,-0.1864,-0.1906,-0.19,-0.1933,-0.1949,-0.1948,-0.197,-0.194,-0.1947,-0.1888,-0.1887,-0.1889,-0.186,-0.1893,-0.1842,-0.1871,-0.1873,-0.1908,-0.2002,-0.1905,-0.1999,-0.196,-0.1961,-0.1963,0,-0.1769,-0.1815,-0.1892,-0.1948,-0.1964,-0.1994,-0.2032,-0.2062,-0.2082,-0.2084,-0.2085,-0.2055,-0.2063,-0.2001,-0.2011,-0.1979,-0.197,-0.1952,-0.1955,-0.1978,-0.1936,-0.1937,-0.2019,-0.1886,-0.1978,-0.1977,-0.1976,0,-0.1795,-0.1876,-0.1934,-0.1955,-0.2017,-0.2042,-0.2067,-0.2096,-0.2129,-0.2153,-0.2177,-0.2171,-0.2172,-0.2153,-0.2105,-0.2065,-0.2122,-0.2064,-0.2109,-0.2113,-0.2029,-0.2023,-0.1985,-0.21,-0.21,-0.21,-0.2099,0,-0.1852,-0.19,-0.1948,-0.1984,-0.2048,-0.2074,-0.2137,-0.216,-0.2208,-0.226,-0.2232,-0.2267,-0.2206,-0.2214,-0.2167,-0.2187,-0.218,-0.2154,-0.2153,-0.2054,-0.205,-0.1926,-0.1875,-0.2104,-0.2103,-0.2102,-0.2101,0,-0.1882,-0.1917,-0.1982,-0.2045,-0.2065,-0.2104,-0.2177,-0.2233,-0.2266,-0.2334,-0.2348,-0.2357,-0.2371,-0.2328,-0.2311,-0.2285,-0.2232,-0.2292,-0.2199,-0.2187,-0.2114,-0.2071,-0.2144,-0.2087,-0.2382,-0.2384,-0.2386,0,-0.1911,-0.1951,-0.2011,-0.2054,-0.2084,-0.2147,-0.2207,-0.2255,-0.231,-0.2389,-0.2427,-0.2461,-0.2479,-0.2493,-0.2455,-0.2444,-0.2301,-0.2348,-0.2259,-0.2137,-0.2086,-0.2083,-0.2026,-0.218,-0.218,-0.218,-0.2179,0,-0.1963,-0.197,-0.2015,-0.2096,-0.2154,-0.2219,-0.2293,-0.2337,-0.2406,-0.2454,-0.2519,-0.2541,-0.2581,-0.2534,-0.2531,-0.2473,-0.225,-0.235,-0.2218,-0.1949,-0.1944,-0.1877,-0.2099,-0.2178,-0.2178,-0.2178,-0.2178,-0.2178,-0.1981,-0.2011,-0.2061,-0.2125,-0.2201,-0.2262,-0.2274,-0.2356,-0.2412,-0.2435,-0.2539,-0.2503,-0.2501,-0.249,-0.2487,-0.2294,-0.232,-0.2123,-0.2094,-0.2114,-0.202,-0.2281,-0.2358,-0.2359,-0.236,-0.2361,-0.2362,0,-0.1998,-0.203,-0.2101,-0.2163,-0.2227,-0.2254,-0.2314,-0.2284,-0.23,-0.2335,-0.2373,-0.2314,-0.228,-0.2223,-0.2112,-0.2014,-0.1966,-0.1864,-0.1754,-0.1716,-0.1919,-0.1862,-0.1838,-0.1838,-0.1838,-0.1838,-0.1838,-0.1838,-0.2012,-0.2053,-0.2072,-0.2146,-0.2194,-0.2171,-0.2159,-0.2112,-0.207,-0.1976,-0.1899,-0.1939,-0.1843,-0.1878,-0.1711,-0.164,-0.1519,-0.152,-0.1508,-0.1523,-0.1541,-0.1558,-0.1488,-0.1386,-0.1385,-0.124,-0.1238,-0.1237]},{"header":{"parameterUnit":"m.s-1","parameterCategory":2,"la1":30.2991,"la2":30.254,"lo1":-89.0895,"lo2":-89.0444,"dx":0.0017,"dy":0.0017,"nx":28,"ny":28,"refTime":"2022-11-07T09:00:00:Z","depth":"0","parameterNumber":3,"parameterNumberName":"V-component_of_CURRENTS"},"data":[0,0,0,0,0,0,0,0,0,0,0,0,0,0,0,0,0,0,0,0,0,0,0,0,0,0,0,0,0,0,0,0,0,0,0,0,0,0,0,0,0,0,0,0,0,0,0,0,0,0,0,0,0,0,0,0,0,0,0.0068,0.0069,0,0.0125,0.0125,0.0126,0.0161,0.0161,0.0162,0.0162,0.019,0.019,0.0191,0,0,0,0,0,0,0,0,0,0,0,0,0,-0.0022,-0.0021,0.0068,0.0069,0.007,0.0125,0.0125,0.0126,0.0161,0.0161,0.0162,0.0163,0.019,0.019,0.0191,0,0,0,0,0,0,0,0,0,0,0,0,0,0.0021,-0.0021,0.0068,0.0096,0.01,0.0125,0.0125,0.0126,0.0161,0.0161,0.0162,0.0163,0.019,0.019,0.0191,0.018,0,0,0.0192,0.0193,0,0,0,0,0,0,0,0,0.0019,0.0024,0.0091,0.0095,0.0098,0.0139,0.0104,0.0144,0.0161,0.0135,0.0162,0.0163,0.0172,0.0174,0.0179,0.0182,0.0183,0.0192,0.0193,0.0193,0.0193,0,0,0,0,0,0,0,0.0016,0.0022,0.0088,0.0092,0.0097,0.0102,0.0109,0.0111,0.0146,0.0137,0.014,0.0151,0.0173,0.0179,0.018,0.0183,0.0192,0.0193,0.0193,0.0193,0.0178,0.0177,0,0,0,0,0,0,0.0014,0.0019,0.0086,0.009,0.0062,0.0103,0.0111,0.0123,0.0147,0.0152,0.015,0.0152,0.0178,0.018,0.0181,0.0164,0.0193,0.0193,0.0194,0.0178,0.0177,0.0177,0,0,0,0,0,0,0.0012,0.002,0.0084,0.0058,0.0067,0.0105,0.0118,0.0124,0.0133,0.0158,0.0162,0.0154,0.0178,0.0181,0.0178,0.0166,0.0194,0.0194,0.0179,0.0178,0.0177,0.0133,0,0,0,0,0,0,0.0009,0.0019,0.0019,0.0058,0.0068,0.009,0.0118,0.0125,0.0139,0.0143,0.0162,0.0165,0.0179,0.0177,0.0179,0.0167,0.0194,0.018,0.0179,0.0177,0.0136,0.0131,0.0127,0,0,0,0,0,0.0006,0.0003,0.0019,0.0027,0.007,0.009,0.0095,0.0122,0.0139,0.0134,0.0149,0.0165,0.017,0.0177,0.0179,0.0167,0.0181,0.0179,0.0177,0.0138,0.0132,0.0127,0,0,0,0,0,0,-0.0042,0.0008,0.0026,0.0037,0.0059,0.0097,0.0097,0.0119,0.0127,0.0131,0.0154,0.0158,0.015,0.0163,0.017,0.0158,0.0178,0.0177,0.0147,0.0142,0.0138,0.0142,0.0195,0,0,0,0,0,-0.005,-0.0036,0.0007,0.0013,0.0025,0.006,0.0071,0.0091,0.011,0.0115,0.013,0.0142,0.0144,0.0147,0.0151,0.0143,0.0158,0.0137,0.0132,0.0129,0.0133,0.0143,0.0141,0.0171,0.0171,0.0171,0,0,-0.0068,-0.0038,-0.0031,0.0004,0.0024,0.003,0.0067,0.0081,0.0081,0.0115,0.0111,0.0125,0.0138,0.0129,0.0128,0.0139,0.0125,0.0127,0.0123,0.013,0.0142,0.0139,0.0136,0.017,0.017,0.0171,0,0,-0.0096,-0.0069,-0.0066,-0.0049,-0.0016,0.0004,0.0007,0.0042,0.0052,0.0054,0.0076,0.0084,0.0088,0.0098,0.0103,0.0077,0.0099,0.0075,0.0058,0.0067,0.0065,0.0064,0.0066,0.0065,0.0075,0.0075,0.0075,0,-0.0122,-0.0106,-0.0067,-0.0061,-0.0052,-0.001,-0.0014,-0.0001,0.0026,0.0034,0.0045,0.0064,0.0074,0.0073,0.0064,0.0067,0.0075,0.0076,0.0062,0.0061,0.006,0.0064,0.0063,0.0072,0.0073,0.0073,0.0073,0,-0.0141,-0.0134,-0.0134,-0.011,-0.01,-0.0098,-0.0068,-0.006,-0.004,-0.002,-0.0012,0.0007,0.0025,0.0024,0.0036,0.0032,0.004,0.0053,0.0076,0.0054,0.0059,0.0059,0.0069,0.007,0.0071,0.0071,0,0,-0.0185,-0.0154,-0.0155,-0.0153,-0.0125,-0.0119,-0.0119,-0.0102,-0.0096,-0.0073,-0.0065,-0.0055,-0.0026,-0.0019,-0.0,0.001,0.0004,0.0027,0.0028,0.0031,0.0019,0.0015,0.0015,0.0015,0.0015,0.0015,0.0021,0,-0.0215,-0.0221,-0.0193,-0.0208,-0.021,-0.0174,-0.0177,-0.0156,-0.0134,-0.0119,-0.0085,-0.0075,-0.0049,-0.0041,-0.0026,0.0001,0.0005,0.0001,0.004,0.0041,0.0041,0.0015,0.0071,0.0081,0.0022,0.0022,0.0022,0,-0.0242,-0.024,-0.0258,-0.025,-0.0246,-0.025,-0.0235,-0.0232,-0.0196,-0.0175,-0.0145,-0.0113,-0.0089,-0.0068,-0.0028,-0.0032,-0.0012,0.0008,0.0009,0.0024,0.0038,0.0096,0.0084,0.0226,0.0022,0.0022,0.0022,0,-0.0291,-0.0288,-0.0306,-0.0303,-0.0286,-0.0286,-0.0279,-0.0249,-0.0247,-0.0209,-0.0198,-0.0153,-0.0137,-0.0097,-0.0051,-0.004,-0.0014,0.0009,0.0022,0.0022,0.0088,0.0093,0.0222,0.0027,0.0027,0.0026,0.0026,0,-0.0333,-0.0346,-0.033,-0.0338,-0.0362,-0.0329,-0.0345,-0.0323,-0.0295,-0.0302,-0.0233,-0.0231,-0.0144,-0.0114,-0.0067,-0.0026,-0.0027,0.0015,0.0022,0.0071,0.0075,0.0217,0.0271,0.0027,0.0027,0.0027,0.0027,0,-0.0383,-0.0372,-0.0392,-0.0383,-0.0386,-0.0403,-0.0399,-0.0409,-0.0366,-0.0372,-0.0363,-0.0292,-0.025,-0.0174,-0.0112,-0.0057,0.0067,-0.0004,0.0043,0.0056,0.021,0.0258,0.0372,0.0435,0.0025,0.0025,0.0025,0,-0.041,-0.0424,-0.0436,-0.0463,-0.0462,-0.048,-0.0499,-0.0459,-0.0465,-0.0422,-0.0433,-0.0379,-0.0363,-0.0259,-0.0128,-0.0039,0.0056,0.0052,0.0087,0.0224,0.0284,0.0331,0.0379,0.0156,0.0157,0.0158,0.0159,0,-0.0465,-0.0466,-0.0491,-0.0543,-0.0572,-0.0601,-0.0614,-0.0623,-0.0582,-0.0585,-0.0585,-0.0566,-0.0417,-0.0265,-0.0114,-0.0056,0.0179,0.007,0.0214,0.0396,0.0455,0.0517,0.0141,0.0166,0.0165,0.0165,0.0164,0.0164,-0.0515,-0.0555,-0.059,-0.0644,-0.0683,-0.0725,-0.0747,-0.0761,-0.0786,-0.0774,-0.0734,-0.0653,-0.0345,-0.011,-0.0035,0.0261,0.0226,0.0355,0.0399,0.0432,0.0509,0.0134,0.0163,0.0163,0.0162,0.0161,0.0161,0,-0.0598,-0.0642,-0.0693,-0.0766,-0.0829,-0.0807,-0.0832,-0.0838,-0.089,-0.0834,-0.0843,-0.0488,-0.0213,0.0103,0.0501,0.0621,0.0666,0.068,0.0799,0.0828,0.0512,0.0537,0.0646,0.0646,0.0646,0.0646,0.0646,0.0645,-0.065,-0.073,-0.0758,-0.0888,-0.0928,-0.0967,-0.0973,-0.0968,-0.0901,-0.0762,-0.0559,-0.0423,0.0063,0.0665,0.1014,0.1011,0.1147,0.1114,0.1164,0.0999,0.0974,0.095,0.099,0.1192,0.1193,0.1507,0.151,0.1512]}],[{"header":{"parameterUnit":"m.s-1","parameterCategory":2,"la1":30.2991,"la2":30.254,"lo1":-89.0895,"lo2":-89.0444,"dx":0.0017,"dy":0.0017,"nx":28,"ny":28,"refTime":"2022-11-07T09:00:00:Z","depth":"2","parameterNumber":2,"parameterNumberName":"U-component_of_CURRENTS"},"data":[0,0,0,0,0,0,0,0,0,0,0,0,0,0,0,0,0,0,0,0,0,0,0,0,0,0,0,0,0,0,0,0,0,0,0,0,0,0,0,0,0,0,0,0,0,0,0,0,0,0,0,0,0,0,0,0,0,0,-0.0854,-0.0854,0,-0.0818,-0.0817,-0.0816,-0.086,-0.0862,-0.0864,-0.0866,-0.0858,-0.0856,-0.0854,0,0,0,0,0,0,0,0,0,0,0,0,0,-0.0884,-0.0883,-0.0854,-0.0854,-0.0854,-0.0818,-0.0817,-0.0816,-0.086,-0.0862,-0.0865,-0.0867,-0.0858,-0.0856,-0.0853,0,0,0,0,0,0,0,0,0,0,0,0,0,-0.0858,-0.0883,-0.0854,-0.0874,-0.0876,-0.0818,-0.0817,-0.0816,-0.0859,-0.0862,-0.0865,-0.0868,-0.0859,-0.0856,-0.0853,-0.0776,0,0,-0.0844,-0.0843,0,0,0,0,0,0,0,0,-0.086,-0.0857,-0.0871,-0.0873,-0.0874,-0.085,-0.0825,-0.0805,-0.0859,-0.0862,-0.0866,-0.0869,-0.0858,-0.0855,-0.0836,-0.0776,-0.0775,-0.0844,-0.0842,-0.084,-0.084,0,0,0,0,0,0,0,-0.0862,-0.0858,-0.0836,-0.0871,-0.0873,-0.0858,-0.0858,-0.082,-0.0842,-0.0862,-0.0866,-0.0866,-0.0859,-0.0839,-0.0837,-0.0775,-0.0844,-0.0841,-0.0839,-0.0838,-0.0747,-0.0747,0,0,0,0,0,0,-0.0874,-0.086,-0.0838,-0.0836,-0.0878,-0.0856,-0.0855,-0.0852,-0.0842,-0.0844,-0.0864,-0.0868,-0.0843,-0.084,-0.0836,-0.0835,-0.084,-0.0838,-0.0836,-0.0748,-0.0747,-0.0746,0,0,0,0,0,0,-0.0874,-0.0872,-0.0839,-0.085,-0.0846,-0.0853,-0.0848,-0.085,-0.0849,-0.0843,-0.0846,-0.0865,-0.0845,-0.0841,-0.0821,-0.0832,-0.0836,-0.0833,-0.0748,-0.0748,-0.0747,-0.0773,0,0,0,0,0,0,-0.0875,-0.0872,-0.0862,-0.0851,-0.0846,-0.0809,-0.0845,-0.0847,-0.0845,-0.0851,-0.0844,-0.0845,-0.0847,-0.0825,-0.0818,-0.0828,-0.0831,-0.0749,-0.0748,-0.0747,-0.0773,-0.0773,-0.0774,0,0,0,0,0,-0.0876,-0.0848,-0.0861,-0.0858,-0.0835,-0.0808,-0.0803,-0.0816,-0.0843,-0.0828,-0.0836,-0.0847,-0.0814,-0.0822,-0.0813,-0.0822,-0.075,-0.0748,-0.0747,-0.0773,-0.0773,-0.0774,0,0,0,0,0,0,-0.084,-0.085,-0.0864,-0.0837,-0.0829,-0.0817,-0.0805,-0.0813,-0.0803,-0.082,-0.0824,-0.0823,-0.0813,-0.0801,-0.0809,-0.0792,-0.0788,-0.0785,-0.0811,-0.0811,-0.0811,-0.0838,-0.0829,0,0,0,0,0,-0.0831,-0.083,-0.0825,-0.0807,-0.0805,-0.0806,-0.0795,-0.0805,-0.08,-0.08,-0.08,-0.08,-0.0791,-0.0791,-0.0773,-0.0748,-0.0768,-0.0752,-0.0752,-0.0753,-0.0767,-0.0786,-0.0791,-0.0742,-0.0742,-0.0742,0,0,-0.0826,-0.082,-0.0827,-0.0802,-0.0802,-0.0794,-0.0807,-0.0795,-0.08,-0.0797,-0.0801,-0.0791,-0.0782,-0.0771,-0.0766,-0.077,-0.0779,-0.0751,-0.0752,-0.0766,-0.0786,-0.0791,-0.0795,-0.0741,-0.0741,-0.0742,0,0,-0.0803,-0.08,-0.0794,-0.0786,-0.078,-0.0779,-0.078,-0.0773,-0.0784,-0.0768,-0.0784,-0.0784,-0.0755,-0.0767,-0.0766,-0.0748,-0.0774,-0.0741,-0.0771,-0.0789,-0.0795,-0.0799,-0.0851,-0.0859,-0.0749,-0.0749,-0.0749,0,-0.081,-0.0786,-0.0784,-0.0769,-0.0775,-0.078,-0.0779,-0.0773,-0.0764,-0.0779,-0.0778,-0.0771,-0.0759,-0.0773,-0.0777,-0.0752,-0.0777,-0.0775,-0.0793,-0.0798,-0.0802,-0.0854,-0.0863,-0.075,-0.075,-0.075,-0.075,0,-0.0772,-0.0768,-0.076,-0.0764,-0.0758,-0.0754,-0.0762,-0.0765,-0.0781,-0.0787,-0.0797,-0.0779,-0.0791,-0.078,-0.0774,-0.08,-0.0815,-0.0788,-0.0801,-0.0809,-0.0862,-0.0872,-0.0752,-0.0751,-0.0751,-0.0751,0,0,-0.0789,-0.0753,-0.0757,-0.0766,-0.0764,-0.076,-0.0775,-0.0792,-0.0825,-0.0809,-0.0848,-0.0826,-0.0834,-0.0834,-0.0827,-0.0841,-0.0893,-0.0835,-0.0835,-0.0902,-0.0967,-0.1078,-0.1099,-0.0872,-0.0873,-0.0874,-0.0999,0,-0.0783,-0.0753,-0.0742,-0.0753,-0.0752,-0.0775,-0.0794,-0.0811,-0.0831,-0.0862,-0.0863,-0.088,-0.085,-0.0866,-0.0874,-0.0886,-0.0916,-0.0864,-0.0934,-0.0938,-0.1048,-0.1113,-0.0893,-0.0994,-0.1009,-0.1011,-0.1012,0,-0.0753,-0.0746,-0.0739,-0.0768,-0.0775,-0.0785,-0.0844,-0.0858,-0.0901,-0.0921,-0.0944,-0.0947,-0.0976,-0.0938,-0.0986,-0.0957,-0.0971,-0.0975,-0.0979,-0.1084,-0.1067,-0.0981,-0.1011,-0.1028,-0.1027,-0.1025,-0.1024,0,-0.0747,-0.0751,-0.075,-0.0756,-0.078,-0.0807,-0.0832,-0.0878,-0.0916,-0.0965,-0.1007,-0.1024,-0.1057,-0.106,-0.1092,-0.1039,-0.1159,-0.108,-0.1199,-0.1207,-0.1037,-0.103,-0.112,-0.112,-0.112,-0.1119,-0.1119,0,-0.073,-0.074,-0.0751,-0.0754,-0.0791,-0.0813,-0.0867,-0.0898,-0.0964,-0.1033,-0.104,-0.111,-0.1088,-0.1155,-0.1145,-0.1247,-0.121,-0.1242,-0.1257,-0.1044,-0.1036,-0.1063,-0.1055,-0.1124,-0.1123,-0.1122,-0.1121,0,-0.0704,-0.0706,-0.0719,-0.0759,-0.0777,-0.0803,-0.0879,-0.0929,-0.0992,-0.1086,-0.1111,-0.119,-0.1301,-0.1319,-0.1361,-0.1351,-0.1405,-0.1444,-0.1232,-0.1222,-0.1419,-0.141,-0.1572,-0.1578,-0.1582,-0.1586,-0.1589,0,-0.0678,-0.0674,-0.0717,-0.0739,-0.0757,-0.0806,-0.0854,-0.0926,-0.0991,-0.1153,-0.1209,-0.1349,-0.1464,-0.1604,-0.1561,-0.1606,-0.1597,-0.1477,-0.1335,-0.1473,-0.147,-0.1454,-0.1439,-0.1105,-0.1103,-0.1102,-0.1102,0,-0.0649,-0.0664,-0.0685,-0.0738,-0.0785,-0.0843,-0.092,-0.0981,-0.1105,-0.12,-0.1388,-0.1499,-0.1612,-0.1583,-0.1654,-0.1619,-0.1448,-0.1471,-0.1647,-0.1062,-0.1053,-0.1043,-0.1039,-0.1093,-0.1094,-0.1095,-0.1095,-0.1096,-0.0647,-0.0656,-0.0701,-0.0748,-0.0825,-0.0925,-0.0959,-0.107,-0.1203,-0.1339,-0.1465,-0.1543,-0.1535,-0.1544,-0.1523,-0.1443,-0.1525,-0.1399,-0.1391,-0.1386,-0.1348,-0.1351,-0.1441,-0.1444,-0.1446,-0.1448,-0.145,0,-0.068,-0.0684,-0.0713,-0.0807,-0.0896,-0.0925,-0.1041,-0.1058,-0.1206,-0.1302,-0.1431,-0.1315,-0.1344,-0.1337,-0.1188,-0.1216,-0.1058,-0.1181,-0.0927,-0.0937,-0.0946,-0.0874,-0.0847,-0.0846,-0.0845,-0.0844,0,0,-0.0694,-0.0725,-0.0728,-0.0857,-0.0926,-0.1012,-0.1057,-0.1075,-0.1104,-0.1143,-0.1134,-0.1269,-0.1286,-0.1067,-0.1029,-0.0923,-0.0907,-0.0864,-0.1335,-0.1042,-0.1049,-0.1055,-0.0959,0,0,0,0,0]},{"header":{"parameterUnit":"m.s-1","parameterCategory":2,"la1":30.2991,"la2":30.254,"lo1":-89.0895,"lo2":-89.0444,"dx":0.0017,"dy":0.0017,"nx":28,"ny":28,"refTime":"2022-11-07T09:00:00:Z","depth":"2","parameterNumber":3,"parameterNumberName":"V-component_of_CURRENTS"},"data":[0,0,0,0,0,0,0,0,0,0,0,0,0,0,0,0,0,0,0,0,0,0,0,0,0,0,0,0,0,0,0,0,0,0,0,0,0,0,0,0,0,0,0,0,0,0,0,0,0,0,0,0,0,0,0,0,0,0,-0.035,-0.0349,0,-0.0288,-0.0287,-0.0287,-0.0245,-0.0244,-0.0244,-0.0243,-0.0184,-0.0183,-0.0182,0,0,0,0,0,0,0,0,0,0,0,0,0,-0.0362,-0.0363,-0.035,-0.0349,-0.0348,-0.0288,-0.0287,-0.0287,-0.0245,-0.0244,-0.0244,-0.0243,-0.0185,-0.0183,-0.0182,0,0,0,0,0,0,0,0,0,0,0,0,0,-0.0336,-0.0363,-0.035,-0.0319,-0.0315,-0.0288,-0.0287,-0.0286,-0.0245,-0.0244,-0.0244,-0.0243,-0.0185,-0.0183,-0.0182,-0.0183,0,0,-0.0176,-0.0175,0,0,0,0,0,0,0,0,-0.0337,-0.0336,-0.0324,-0.0321,-0.0317,-0.0272,-0.027,-0.0252,-0.0245,-0.0273,-0.0243,-0.0243,-0.0213,-0.0209,-0.0201,-0.0181,-0.0178,-0.0176,-0.0175,-0.0174,-0.0174,0,0,0,0,0,0,0,-0.0339,-0.0337,-0.0327,-0.0323,-0.0319,-0.0284,-0.028,-0.0266,-0.0249,-0.0271,-0.0267,-0.0258,-0.0212,-0.0203,-0.0199,-0.0177,-0.0176,-0.0174,-0.0173,-0.0173,-0.0122,-0.0122,0,0,0,0,0,0,-0.0349,-0.034,-0.0329,-0.0325,-0.0324,-0.0285,-0.028,-0.0288,-0.0249,-0.0242,-0.0259,-0.0256,-0.0206,-0.0201,-0.0197,-0.0171,-0.0174,-0.0172,-0.0171,-0.0123,-0.0122,-0.0122,0,0,0,0,0,0,-0.035,-0.0349,-0.0331,-0.0328,-0.0323,-0.0285,-0.0294,-0.0287,-0.0272,-0.0239,-0.0233,-0.025,-0.0205,-0.0199,-0.0173,-0.017,-0.0172,-0.017,-0.0123,-0.0122,-0.0122,-0.0137,0,0,0,0,0,0,-0.0351,-0.035,-0.0365,-0.033,-0.0324,-0.0306,-0.0294,-0.0287,-0.0267,-0.0263,-0.0229,-0.0223,-0.0204,-0.0176,-0.0172,-0.0167,-0.0169,-0.0123,-0.0123,-0.0122,-0.0137,-0.0137,-0.0137,0,0,0,0,0,-0.0352,-0.0374,-0.0366,-0.0364,-0.0344,-0.0305,-0.0299,-0.027,-0.0268,-0.0255,-0.0234,-0.0224,-0.017,-0.0174,-0.0169,-0.0164,-0.0123,-0.0123,-0.0122,-0.0136,-0.0137,-0.0137,0,0,0,0,0,0,-0.0388,-0.037,-0.0361,-0.0378,-0.0339,-0.0297,-0.0288,-0.0271,-0.0246,-0.0245,-0.022,-0.0212,-0.0189,-0.0175,-0.0181,-0.0148,-0.0145,-0.0144,-0.0158,-0.0158,-0.0159,-0.0151,-0.0167,0,0,0,0,0,-0.0404,-0.0414,-0.0377,-0.0386,-0.0368,-0.033,-0.0314,-0.029,-0.0261,-0.0249,-0.0224,-0.0202,-0.0185,-0.017,-0.015,-0.0132,-0.0112,-0.0126,-0.0126,-0.0126,-0.0116,-0.0079,-0.0074,-0.012,-0.012,-0.012,0,0,-0.0407,-0.0411,-0.0407,-0.0393,-0.0363,-0.0332,-0.0318,-0.0289,-0.0264,-0.0248,-0.0215,-0.0203,-0.0181,-0.0158,-0.0147,-0.0144,-0.0105,-0.0126,-0.0126,-0.0116,-0.0077,-0.0073,-0.0069,-0.0119,-0.0119,-0.012,0,0,-0.0418,-0.0431,-0.043,-0.0401,-0.0365,-0.034,-0.0331,-0.0284,-0.0266,-0.0235,-0.0221,-0.0198,-0.0171,-0.0147,-0.0135,-0.0124,-0.011,-0.0129,-0.012,-0.0084,-0.008,-0.0076,-0.0057,-0.0051,-0.0126,-0.0126,-0.0126,0,-0.0422,-0.0431,-0.0419,-0.0404,-0.0381,-0.0343,-0.0316,-0.0289,-0.0241,-0.0228,-0.0224,-0.0179,-0.0161,-0.0131,-0.0128,-0.0123,-0.0111,-0.0123,-0.0084,-0.008,-0.0075,-0.0057,-0.005,-0.0127,-0.0127,-0.0127,-0.0127,0,-0.0425,-0.0419,-0.0413,-0.0387,-0.0361,-0.0332,-0.0288,-0.0265,-0.0248,-0.0221,-0.0189,-0.0161,-0.0134,-0.013,-0.0126,-0.0093,-0.0097,-0.0092,-0.0084,-0.0072,-0.0053,-0.0046,-0.0128,-0.0128,-0.0127,-0.0127,0,0,-0.0449,-0.042,-0.0415,-0.0398,-0.0351,-0.0329,-0.0293,-0.0252,-0.0235,-0.0193,-0.0166,-0.0135,-0.0125,-0.0111,-0.0102,-0.007,-0.0036,-0.0073,-0.0071,-0.0056,0.0028,0.0077,0.009,-0.003,-0.0029,-0.0028,0.0024,0,-0.0445,-0.0432,-0.0415,-0.0375,-0.0352,-0.0312,-0.0286,-0.0247,-0.0217,-0.0182,-0.0147,-0.0121,-0.0117,-0.0112,-0.0077,-0.0048,-0.0016,-0.0051,0.0016,0.0018,0.006,0.0101,0.0058,0.0105,0.0031,0.0032,0.0033,0,-0.0449,-0.0443,-0.0416,-0.0378,-0.0365,-0.0341,-0.0304,-0.0274,-0.0219,-0.0196,-0.0155,-0.0126,-0.0078,-0.0076,-0.0001,-0.0029,0.0,0.0027,0.0029,0.0091,0.0082,0.0084,0.0121,0.0045,0.0044,0.0043,0.0043,0,-0.0483,-0.0442,-0.0433,-0.0413,-0.0363,-0.0354,-0.0334,-0.0285,-0.0264,-0.0206,-0.0184,-0.0119,-0.0091,-0.0034,0.0019,0.0007,0.0102,0.0096,0.0171,0.0173,0.0161,0.0161,0.016,0.016,0.016,0.0159,0.0159,0,-0.0498,-0.0481,-0.0451,-0.0438,-0.0429,-0.0388,-0.0373,-0.0341,-0.0293,-0.0269,-0.0202,-0.0169,-0.008,-0.0017,0.003,0.0128,0.0114,0.0191,0.0204,0.0153,0.0152,0.012,0.0115,0.0161,0.0161,0.0161,0.016,0,-0.0528,-0.0507,-0.0484,-0.0447,-0.0441,-0.0437,-0.0406,-0.0392,-0.0346,-0.0309,-0.0292,-0.0199,-0.0116,-0.0024,0.0072,0.0145,0.0228,0.0261,0.0192,0.0198,0.0269,0.0262,0.0366,0.0368,0.0371,0.0372,0.0374,0,-0.0539,-0.0537,-0.0503,-0.0498,-0.0483,-0.0475,-0.047,-0.0427,-0.0408,-0.0334,-0.0317,-0.0221,-0.0156,0.0023,0.0162,0.0288,0.0264,0.0335,0.0329,0.0296,0.0297,0.0287,0.0277,0.0289,0.0289,0.029,0.029,0,-0.0558,-0.0551,-0.0536,-0.0534,-0.0528,-0.0521,-0.051,-0.0504,-0.0454,-0.0426,-0.0379,-0.0323,-0.0125,0.0024,0.0227,0.0288,0.032,0.0355,0.0342,0.0256,0.0231,0.0229,0.0221,0.0295,0.0295,0.0294,0.0294,0.0294,-0.0563,-0.0572,-0.0566,-0.0565,-0.0561,-0.0569,-0.057,-0.0561,-0.0551,-0.0494,-0.043,-0.0322,-0.0147,0.0146,0.026,0.0384,0.0394,0.0412,0.0406,0.0401,0.0396,0.0378,0.0467,0.0467,0.0468,0.0468,0.0468,0,-0.0575,-0.0599,-0.0601,-0.0597,-0.0609,-0.0598,-0.0594,-0.0589,-0.0599,-0.0522,-0.0466,-0.0272,-0.0076,0.0097,0.0311,0.0446,0.0403,0.0442,0.0354,0.035,0.0346,0.0334,0.039,0.039,0.039,0.0391,0,0,-0.0583,-0.0604,-0.0621,-0.0648,-0.0649,-0.0665,-0.0669,-0.0655,-0.0601,-0.0542,-0.0444,-0.0271,-0.0054,0.0083,0.022,0.0311,0.029,0.0307,0.0356,0.023,0.0224,0.0318,0.0295,0,0,0,0,0]}],[{"header":{"parameterUnit":"m.s-1","parameterCategory":2,"la1":30.2991,"la2":30.254,"lo1":-89.0895,"lo2":-89.0444,"dx":0.0017,"dy":0.0017,"nx":28,"ny":28,"refTime":"2022-11-07T09:00:00:Z","depth":"4","parameterNumber":2,"parameterNumberName":"U-component_of_CURRENTS"},"data":[0,0,0,0,0,0,0,0,0,0,0,0,0,0,0,0,0,0,0,0,0,0,0,0,0,0,0,0,0,0,0,0,0,0,0,0,0,0,0,0,0,0,0,0,0,0,0,0,0,0,0,0,0,0,0,0,0,0,-0.0587,-0.0587,0,-0.0629,-0.063,-0.063,-0.0663,-0.0664,-0.0664,-0.0664,-0.0721,-0.0722,-0.0723,0,0,0,0,0,0,0,0,0,0,0,0,0,-0.0554,-0.0554,-0.0587,-0.0587,-0.0588,-0.0629,-0.063,-0.063,-0.0663,-0.0664,-0.0664,-0.0664,-0.072,-0.0722,-0.0723,0,0,0,0,0,0,0,0,0,0,0,0,0,-0.058,-0.0555,-0.0587,-0.0608,-0.0611,-0.0629,-0.063,-0.0631,-0.0663,-0.0664,-0.0664,-0.0664,-0.072,-0.0722,-0.0723,-0.0729,0,0,-0.0729,-0.073,0,0,0,0,0,0,0,0,-0.0579,-0.0582,-0.0605,-0.0607,-0.061,-0.064,-0.0639,-0.0664,-0.0663,-0.0645,-0.0664,-0.0664,-0.0694,-0.0698,-0.0707,-0.0731,-0.0734,-0.073,-0.0731,-0.0732,-0.0732,0,0,0,0,0,0,0,-0.0577,-0.058,-0.0605,-0.0605,-0.0608,-0.0622,-0.0626,-0.0644,-0.0668,-0.0646,-0.0648,-0.0651,-0.0696,-0.0705,-0.0708,-0.0735,-0.073,-0.0731,-0.0732,-0.0733,-0.0826,-0.0828,0,0,0,0,0,0,-0.0568,-0.0578,-0.0604,-0.0606,-0.0593,-0.0622,-0.0627,-0.0631,-0.0668,-0.0673,-0.0651,-0.0653,-0.0701,-0.0706,-0.071,-0.0766,-0.0732,-0.0733,-0.0735,-0.0825,-0.0827,-0.0828,0,0,0,0,0,0,-0.0567,-0.057,-0.0602,-0.0592,-0.0597,-0.0622,-0.0627,-0.0632,-0.0651,-0.0671,-0.0677,-0.0665,-0.0702,-0.0708,-0.0735,-0.0767,-0.0734,-0.0736,-0.0823,-0.0826,-0.0827,-0.0847,0,0,0,0,0,0,-0.0566,-0.057,-0.0576,-0.0592,-0.0597,-0.0622,-0.0627,-0.0632,-0.065,-0.0653,-0.0685,-0.069,-0.0702,-0.0732,-0.0737,-0.0769,-0.0738,-0.0822,-0.0824,-0.0827,-0.0845,-0.0849,-0.0853,0,0,0,0,0,-0.0565,-0.0573,-0.0576,-0.058,-0.0603,-0.0622,-0.0627,-0.0647,-0.0651,-0.0664,-0.0683,-0.069,-0.0752,-0.0734,-0.074,-0.0773,-0.0821,-0.0824,-0.0827,-0.0843,-0.0848,-0.0853,0,0,0,0,0,0,-0.0565,-0.0577,-0.0581,-0.0593,-0.061,-0.0628,-0.0642,-0.065,-0.0675,-0.0681,-0.0697,-0.0703,-0.0745,-0.0753,-0.0733,-0.0809,-0.0792,-0.0796,-0.0802,-0.0808,-0.0812,-0.0784,-0.0739,0,0,0,0,0,-0.0566,-0.0575,-0.0588,-0.06,-0.0607,-0.0625,-0.0636,-0.0649,-0.0668,-0.068,-0.0702,-0.0729,-0.076,-0.0777,-0.0804,-0.0835,-0.0826,-0.0864,-0.0868,-0.0872,-0.0854,-0.0854,-0.0856,-0.0838,-0.0838,-0.0838,0,0,-0.057,-0.0577,-0.0583,-0.06,-0.0615,-0.0634,-0.0634,-0.0655,-0.0675,-0.0682,-0.0721,-0.0745,-0.0772,-0.0815,-0.0835,-0.0824,-0.0881,-0.0875,-0.0878,-0.0858,-0.0857,-0.0859,-0.086,-0.084,-0.0839,-0.0839,0,0,-0.0579,-0.0589,-0.0598,-0.0614,-0.0634,-0.0647,-0.0653,-0.0678,-0.0694,-0.0724,-0.0744,-0.077,-0.082,-0.0841,-0.0858,-0.0898,-0.0905,-0.093,-0.0928,-0.0929,-0.093,-0.093,-0.0949,-0.0951,-0.0931,-0.0931,-0.0931,0,-0.0582,-0.0597,-0.0605,-0.0621,-0.0639,-0.0653,-0.0674,-0.0691,-0.0724,-0.0736,-0.074,-0.0806,-0.0826,-0.087,-0.0889,-0.0905,-0.0916,-0.0905,-0.0932,-0.0932,-0.0932,-0.0951,-0.0952,-0.0932,-0.0932,-0.0932,-0.0932,0,-0.0597,-0.0615,-0.0625,-0.0649,-0.067,-0.0692,-0.0714,-0.0738,-0.0755,-0.0769,-0.0812,-0.0833,-0.0866,-0.0892,-0.0901,-0.0931,-0.0943,-0.0937,-0.0912,-0.0934,-0.0954,-0.0956,-0.0934,-0.0934,-0.0933,-0.0933,0,0,-0.0583,-0.0626,-0.0631,-0.065,-0.0689,-0.0706,-0.0741,-0.0771,-0.0789,-0.0817,-0.0839,-0.0884,-0.0887,-0.0905,-0.0928,-0.0927,-0.0946,-0.0934,-0.0934,-0.0941,-0.0969,-0.0912,-0.0908,-0.095,-0.0949,-0.0949,-0.0992,0,-0.0593,-0.0627,-0.065,-0.0692,-0.0712,-0.0743,-0.0773,-0.0803,-0.0824,-0.0848,-0.0862,-0.0892,-0.0897,-0.0916,-0.0917,-0.0944,-0.0946,-0.0935,-0.0956,-0.0956,-0.0891,-0.0905,-0.0948,-0.0993,-0.0993,-0.0993,-0.0993,0,-0.0594,-0.062,-0.0658,-0.0711,-0.0724,-0.0753,-0.08,-0.0826,-0.0857,-0.0872,-0.0891,-0.0904,-0.0927,-0.0913,-0.0945,-0.0945,-0.0951,-0.0958,-0.096,-0.0889,-0.0899,-0.096,-0.0995,-0.0995,-0.0995,-0.0995,-0.0995,0,-0.0569,-0.0625,-0.0657,-0.0677,-0.0735,-0.0761,-0.0794,-0.0832,-0.0851,-0.088,-0.0893,-0.092,-0.0941,-0.0943,-0.0967,-0.0959,-0.0992,-0.0982,-0.0936,-0.0934,-0.0963,-0.0962,-0.0977,-0.0977,-0.0977,-0.0977,-0.0977,0,-0.056,-0.0588,-0.065,-0.0664,-0.0707,-0.0751,-0.0786,-0.0819,-0.0853,-0.0866,-0.0898,-0.0903,-0.0947,-0.0973,-0.0975,-0.0967,-0.1002,-0.0926,-0.093,-0.0977,-0.0977,-0.0966,-0.0964,-0.0978,-0.0978,-0.0978,-0.0977,0,-0.0522,-0.0564,-0.0601,-0.0667,-0.0692,-0.0718,-0.0782,-0.0798,-0.0839,-0.0856,-0.0864,-0.0909,-0.0926,-0.0971,-0.0993,-0.098,-0.0974,-0.0961,-0.1031,-0.1041,-0.0914,-0.0913,-0.0898,-0.0896,-0.0894,-0.0893,-0.0892,0,-0.0502,-0.0516,-0.0589,-0.0615,-0.0648,-0.0696,-0.0724,-0.0779,-0.0788,-0.0838,-0.0833,-0.0876,-0.0896,-0.0891,-0.0936,-0.0951,-0.0935,-0.0954,-0.0897,-0.0895,-0.0901,-0.0903,-0.0904,-0.0889,-0.0889,-0.0888,-0.0888,0,-0.0461,-0.0489,-0.0519,-0.0572,-0.0612,-0.065,-0.0691,-0.0691,-0.074,-0.0789,-0.077,-0.0781,-0.0808,-0.0827,-0.0868,-0.0867,-0.095,-0.0936,-0.0938,-0.0885,-0.0885,-0.0893,-0.0896,-0.0882,-0.0883,-0.0884,-0.0884,0,-0.0422,-0.0434,-0.0476,-0.052,-0.0572,-0.0591,-0.062,-0.0629,-0.0646,-0.0696,-0.0684,-0.0725,-0.0777,-0.0783,-0.0805,-0.082,-0.0791,-0.0778,-0.0788,-0.0795,-0.0742,-0.0726,-0.0668,0,0,0,0,0,-0.0374,-0.039,-0.0427,-0.0471,-0.0521,-0.0548,-0.0594,-0.0617,-0.0659,-0.0622,-0.0649,-0.0653,-0.0673,-0.0696,-0.0688,-0.0769,-0.0811,-0.0759,-0.0803,-0.0851,-0.0858,-0.0806,0,0,0,0,0,0,-0.0346,-0.0375,-0.0402,-0.0424,-0.0443,-0.0484,-0.0506,-0.0538,-0.0514,-0.0561,-0.0563,-0.0616,-0.0637,-0.0659,-0.067,-0.0684,-0.0701,-0.0794,-0.0792,-0.0847,-0.0853,-0.0859,-0.0808,0,0,0,0,0]},{"header":{"parameterUnit":"m.s-1","parameterCategory":2,"la1":30.2991,"la2":30.254,"lo1":-89.0895,"lo2":-89.0444,"dx":0.0017,"dy":0.0017,"nx":28,"ny":28,"refTime":"2022-11-07T09:00:00:Z","depth":"4","parameterNumber":3,"parameterNumberName":"V-component_of_CURRENTS"},"data":[0,0,0,0,0,0,0,0,0,0,0,0,0,0,0,0,0,0,0,0,0,0,0,0,0,0,0,0,0,0,0,0,0,0,0,0,0,0,0,0,0,0,0,0,0,0,0,0,0,0,0,0,0,0,0,0,0,0,0.0007,0.0008,0,0.0018,0.0018,0.0018,0.0032,0.0032,0.0033,0.0033,0.0073,0.0074,0.0074,0,0,0,0,0,0,0,0,0,0,0,0,0,0.0004,0.0004,0.0007,0.0008,0.0008,0.0018,0.0018,0.0019,0.0032,0.0032,0.0033,0.0033,0.0072,0.0073,0.0075,0,0,0,0,0,0,0,0,0,0,0,0,0,0.001,0.0004,0.0007,0.0015,0.0016,0.0018,0.0018,0.0019,0.0032,0.0032,0.0033,0.0033,0.0072,0.0073,0.0075,0.0078,0,0,0.0079,0.0079,0,0,0,0,0,0,0,0,0.001,0.001,0.0014,0.0015,0.0016,0.0024,0.0032,0.004,0.0032,0.0027,0.0033,0.0033,0.0058,0.0061,0.0063,0.008,0.0081,0.0079,0.008,0.008,0.0081,0,0,0,0,0,0,0,0.0009,0.001,0.0012,0.0014,0.0015,0.002,0.0021,0.0033,0.0042,0.0027,0.0028,0.0028,0.0059,0.0061,0.0064,0.0082,0.0079,0.008,0.0081,0.0081,0.0119,0.0119,0,0,0,0,0,0,0.0006,0.0009,0.0012,0.0013,0.0013,0.002,0.0021,0.0021,0.0041,0.0044,0.0028,0.0029,0.0059,0.0062,0.0065,0.0079,0.008,0.0082,0.0082,0.0119,0.0119,0.012,0,0,0,0,0,0,0.0006,0.0006,0.0011,0.0011,0.0012,0.002,0.002,0.0021,0.0025,0.0041,0.0045,0.003,0.0059,0.0063,0.0074,0.0081,0.0082,0.0083,0.0119,0.0119,0.0119,0.0102,0,0,0,0,0,0,0.0006,0.0006,0.0007,0.0011,0.0012,0.001,0.0019,0.0021,0.0024,0.0026,0.0044,0.0048,0.006,0.0072,0.0076,0.0083,0.0084,0.0119,0.0119,0.0119,0.0102,0.0101,0.0101,0,0,0,0,0,0.0006,0.0005,0.0007,0.0007,0.0012,0.001,0.0011,0.0018,0.0024,0.0023,0.0036,0.0048,0.0077,0.0073,0.0077,0.0085,0.0118,0.0119,0.0119,0.0102,0.0101,0.0101,0,0,0,0,0,0,0.0007,0.0006,0.0008,0.0008,0.0008,0.0012,0.0013,0.0017,0.0026,0.003,0.0046,0.0051,0.0064,0.0076,0.0071,0.0097,0.0102,0.0103,0.0087,0.0087,0.0086,0.0078,0.0086,0,0,0,0,0,0.0006,0.0003,0.0004,0.0004,0.0003,0.0008,0.0009,0.0012,0.0019,0.0024,0.0035,0.0053,0.0068,0.0078,0.0091,0.0103,0.012,0.0112,0.0112,0.0111,0.0107,0.0138,0.014,0.0121,0.0121,0.0121,0,0,0.0006,0.0006,0.0005,0.0003,0.0005,-0.0,0.0009,0.0009,0.0008,0.0027,0.0032,0.0048,0.007,0.0083,0.0091,0.0095,0.0126,0.0111,0.0111,0.0107,0.0138,0.014,0.0142,0.0121,0.0121,0.0121,0,0,0.0,0.0004,-0.0002,-0.0005,-0.0006,-0.0004,-0.0005,-0.0002,0.0004,0.0007,0.0025,0.0041,0.006,0.0077,0.009,0.0093,0.012,0.0104,0.0096,0.0126,0.0128,0.0129,0.0157,0.0162,0.0106,0.0106,0.0106,0,0.0001,-0.0008,-0.0004,-0.0012,-0.0015,-0.0007,-0.0015,-0.001,-0.0004,0.0004,0.0005,0.0041,0.0056,0.0081,0.0082,0.0091,0.0114,0.0096,0.0125,0.0127,0.0129,0.0157,0.0162,0.0105,0.0105,0.0105,0.0105,0,-0.0012,-0.002,-0.0024,-0.0032,-0.0033,-0.0039,-0.0034,-0.003,-0.0023,-0.0015,0.0006,0.0025,0.0048,0.0059,0.007,0.0098,0.0111,0.0118,0.0125,0.013,0.0159,0.0165,0.0104,0.0104,0.0105,0.0105,0,0,-0.0013,-0.003,-0.0032,-0.0041,-0.0044,-0.0047,-0.0045,-0.004,-0.0034,-0.0022,-0.0012,0.0015,0.0031,0.0045,0.0068,0.0093,0.0126,0.0111,0.0113,0.0135,0.0196,0.0179,0.0183,0.0143,0.0144,0.0144,0.0212,0,-0.0026,-0.005,-0.005,-0.0067,-0.008,-0.0069,-0.0068,-0.0058,-0.0047,-0.0036,-0.0007,0.0009,0.0026,0.0038,0.0066,0.0106,0.0139,0.0107,0.0191,0.0193,0.0175,0.0188,0.0147,0.0216,0.0217,0.0218,0.0219,0,-0.0041,-0.0058,-0.008,-0.0089,-0.0091,-0.0095,-0.0086,-0.0083,-0.006,-0.005,-0.0026,-0.0005,0.0029,0.0041,0.0116,0.0097,0.0146,0.0179,0.0183,0.0175,0.0186,0.0211,0.0229,0.0228,0.0228,0.0227,0.0226,0,-0.0055,-0.0075,-0.0094,-0.01,-0.0109,-0.0108,-0.0104,-0.0087,-0.0083,-0.0058,-0.0057,-0.0008,0.0006,0.0073,0.0133,0.0132,0.0216,0.0224,0.0259,0.0258,0.0262,0.0259,0.0288,0.0288,0.0287,0.0287,0.0287,0,-0.0074,-0.0088,-0.0103,-0.0117,-0.0131,-0.0123,-0.0126,-0.0115,-0.01,-0.0101,-0.0064,-0.0063,0.0015,0.0066,0.0134,0.0207,0.0222,0.0259,0.0275,0.0253,0.0249,0.0266,0.0263,0.029,0.0289,0.0289,0.0288,0,-0.0091,-0.0101,-0.0127,-0.0141,-0.0143,-0.0153,-0.0151,-0.0153,-0.0134,-0.0137,-0.0133,-0.01,-0.0052,0.0034,0.0134,0.0197,0.0277,0.0306,0.0275,0.0289,0.0302,0.0297,0.035,0.035,0.035,0.035,0.035,0,-0.0103,-0.0119,-0.0149,-0.0168,-0.0177,-0.0187,-0.0195,-0.0176,-0.0181,-0.0167,-0.0176,-0.0137,-0.0109,0.0016,0.0108,0.0244,0.0264,0.0331,0.0317,0.0298,0.0309,0.0304,0.0299,0.035,0.0349,0.0349,0.0349,0,-0.0127,-0.0138,-0.0163,-0.0206,-0.0225,-0.0244,-0.0253,-0.0257,-0.0239,-0.0222,-0.0215,-0.0154,-0.0105,-0.0013,0.0096,0.0194,0.0299,0.033,0.0331,0.0318,0.0298,0.0308,0.0303,0.0349,0.0349,0.0349,0.0349,0,-0.0141,-0.017,-0.0207,-0.0243,-0.0274,-0.0301,-0.0294,-0.0298,-0.0292,-0.0263,-0.0266,-0.0205,-0.0161,-0.0039,0.0058,0.0151,0.0174,0.0234,0.0241,0.0242,0.0187,0.0144,0.0162,0,0,0,0,0,-0.0149,-0.0193,-0.0238,-0.0289,-0.0322,-0.034,-0.0339,-0.0326,-0.0304,-0.0304,-0.028,-0.0236,-0.0114,-0.007,0.0015,0.0053,0.0191,0.0161,0.0264,0.0348,0.0348,0.03,0,0,0,0,0,0,-0.0161,-0.021,-0.0248,-0.032,-0.0362,-0.0398,-0.0399,-0.038,-0.0371,-0.0337,-0.0287,-0.0217,-0.0116,-0.019,0.0002,0.0033,0.0117,0.0222,0.0225,0.0348,0.0348,0.0349,0.0298,0,0,0,0,0]}]]